SJX762 WIII-RCTP

Flight info

Callsign SJX762
Flight time N/A
Altitude 37000
Route AMBOY P648 VJN M646 TOKON/N0475F390 M646 MIA/N0478F380 B462 LAO/N0477F390 M646 HCN W4 TNN TNN1B
Aircraft A339/H-SADE1E2E3GHIJ3J5M1P2RWXY/LB2D1

Departure

Time 2026-05-06 16:36
Airport Soekarno-Hatta International Airport (WIII)

Arrival

Time N/A
Airport Taiwan Taoyuan International Airport (RCTP)
Time Latitude Longitude Altitude Speed Heading
2026-05-06 15:56 -6.11730 106.66532 55 ft 0 kts 158°
2026-05-06 16:15 -6.11717 106.66528 55 ft 2 kts 158°
2026-05-06 16:15 -6.11703 106.66522 55 ft 2 kts 158°
2026-05-06 16:15 -6.11690 106.66516 55 ft 2 kts 158°
2026-05-06 16:16 -6.11675 106.66511 55 ft 2 kts 158°
2026-05-06 16:16 -6.11662 106.66505 55 ft 2 kts 158°
2026-05-06 16:16 -6.11647 106.66500 55 ft 2 kts 180°
2026-05-06 16:16 -6.11633 106.66505 55 ft 2 kts 218°
2026-05-06 16:17 -6.11624 106.66515 55 ft 0 kts 247°
2026-05-06 16:17 -6.11622 106.66520 55 ft 0 kts 249°
2026-05-06 16:20 -6.11622 106.66518 55 ft 0 kts 249°
2026-05-06 16:20 -6.11629 106.66502 55 ft 4 kts 248°
2026-05-06 16:20 -6.11642 106.66469 55 ft 5 kts 250°
2026-05-06 16:20 -6.11639 106.66423 55 ft 8 kts 298°
2026-05-06 16:21 -6.11584 106.66383 55 ft 11 kts 338°
2026-05-06 16:21 -6.11501 106.66351 55 ft 13 kts 338°
2026-05-06 16:21 -6.11443 106.66311 55 ft 9 kts 292°
2026-05-06 16:21 -6.11455 106.66240 55 ft 11 kts 249°
2026-05-06 16:22 -6.11485 106.66165 55 ft 12 kts 248°
2026-05-06 16:22 -6.11517 106.66084 55 ft 12 kts 248°
2026-05-06 16:22 -6.11551 106.65999 55 ft 13 kts 248°
2026-05-06 16:22 -6.11586 106.65910 55 ft 13 kts 248°
2026-05-06 16:23 -6.11623 106.65818 55 ft 14 kts 248°
2026-05-06 16:23 -6.11661 106.65723 55 ft 14 kts 248°
2026-05-06 16:23 -6.11699 106.65626 55 ft 15 kts 248°
2026-05-06 16:23 -6.11739 106.65527 55 ft 15 kts 248°
2026-05-06 16:24 -6.11780 106.65424 55 ft 15 kts 248°
2026-05-06 16:24 -6.11820 106.65323 55 ft 15 kts 248°
2026-05-06 16:24 -6.11861 106.65219 55 ft 16 kts 248°
2026-05-06 16:24 -6.11903 106.65115 55 ft 16 kts 249°
2026-05-06 16:25 -6.11945 106.65009 55 ft 16 kts 248°
2026-05-06 16:25 -6.11988 106.64902 55 ft 16 kts 248°
2026-05-06 16:25 -6.12030 106.64795 55 ft 16 kts 248°
2026-05-06 16:25 -6.12073 106.64688 55 ft 16 kts 248°
2026-05-06 16:26 -6.12116 106.64580 55 ft 16 kts 248°
2026-05-06 16:26 -6.12155 106.64484 55 ft 10 kts 247°
2026-05-06 16:26 -6.12211 106.64451 55 ft 10 kts 176°
2026-05-06 16:26 -6.12288 106.64474 55 ft 13 kts 159°
2026-05-06 16:27 -6.12380 106.64511 55 ft 15 kts 158°
2026-05-06 16:27 -6.12489 106.64554 55 ft 17 kts 158°
2026-05-06 16:27 -6.12611 106.64603 55 ft 19 kts 158°
2026-05-06 16:27 -6.12735 106.64653 55 ft 18 kts 158°
2026-05-06 16:28 -6.12837 106.64693 65 ft 11 kts 158°
2026-05-06 16:28 -6.12900 106.64719 72 ft 8 kts 158°
2026-05-06 16:28 -6.12951 106.64738 74 ft 8 kts 158°
2026-05-06 16:28 -6.13040 106.64774 64 ft 17 kts 157°
2026-05-06 16:29 -6.13086 106.64793 58 ft 5 kts 156°
2026-05-06 16:29 -6.13136 106.64815 55 ft 9 kts 158°
2026-05-06 16:29 -6.13203 106.64841 55 ft 10 kts 159°
2026-05-06 16:29 -6.13276 106.64869 55 ft 11 kts 158°
2026-05-06 16:30 -6.13353 106.64899 55 ft 12 kts 158°
2026-05-06 16:30 -6.13407 106.64922 55 ft 12 kts 158°
2026-05-06 16:30 -6.13522 106.64967 55 ft 13 kts 159°
2026-05-06 16:30 -6.13612 106.65002 55 ft 14 kts 158°
2026-05-06 16:31 -6.13703 106.65037 55 ft 11 kts 158°
2026-05-06 16:31 -6.13779 106.65042 55 ft 11 kts 213°
2026-05-06 16:31 -6.13820 106.64970 55 ft 12 kts 248°
2026-05-06 16:31 -6.13854 106.64886 55 ft 13 kts 248°
2026-05-06 16:32 -6.13889 106.64796 55 ft 13 kts 248°
2026-05-06 16:32 -6.13926 106.64706 55 ft 14 kts 249°
2026-05-06 16:32 -6.13963 106.64610 55 ft 14 kts 248°
2026-05-06 16:32 -6.14002 106.64513 55 ft 15 kts 248°
2026-05-06 16:33 -6.14042 106.64414 55 ft 15 kts 248°
2026-05-06 16:33 -6.14083 106.64326 55 ft 13 kts 233°
2026-05-06 16:33 -6.14107 106.64305 55 ft 0 kts 209°
2026-05-06 16:34 -6.14115 106.64301 55 ft 3 kts 202°
2026-05-06 16:35 -6.14164 106.64305 55 ft 11 kts 154°
2026-05-06 16:35 -6.14217 106.64366 55 ft 12 kts 122°
2026-05-06 16:35 -6.14225 106.64435 55 ft 10 kts 70°
2026-05-06 16:35 -6.14185 106.64539 55 ft 33 kts 68°
2026-05-06 16:36 -6.14017 106.64960 56 ft 94 kts 68°
2026-05-06 16:36 -6.13706 106.65738 56 ft 146 kts 68°
2026-05-06 16:36 -6.13272 106.66823 124 ft 182 kts 69°
2026-05-06 16:36 -6.12802 106.68001 642 ft 182 kts 68°
2026-05-06 16:37 -6.12334 106.69170 1317 ft 179 kts 69°
2026-05-06 16:37 -6.11885 106.70305 1933 ft 175 kts 69°
2026-05-06 16:37 -6.11416 106.71486 2199 ft 187 kts 68°
2026-05-06 16:37 -6.10918 106.72737 2453 ft 200 kts 71°
2026-05-06 16:38 -6.10572 106.74157 2700 ft 215 kts 83°
2026-05-06 16:38 -6.10488 106.75703 2962 ft 231 kts 88°
2026-05-06 16:38 -6.10454 106.77374 3254 ft 247 kts 88°
2026-05-06 16:38 -6.10412 106.79143 3662 ft 258 kts 88°
2026-05-06 16:39 -6.10375 106.80939 4275 ft 260 kts 88°
2026-05-06 16:39 -6.10335 106.82735 4920 ft 261 kts 88°
2026-05-06 16:39 -6.10301 106.84576 5506 ft 264 kts 87°
2026-05-06 16:39 -6.10256 106.86416 6089 ft 267 kts 86°
2026-05-06 16:40 -6.10203 106.88284 6636 ft 270 kts 87°
2026-05-06 16:40 -6.10149 106.90173 6944 ft 271 kts 87°
2026-05-06 16:40 -6.10096 106.92078 6999 ft 271 kts 87°
2026-05-06 16:40 -6.10045 106.93952 7008 ft 271 kts 88°
2026-05-06 16:41 -6.09998 106.95844 7012 ft 272 kts 88°
2026-05-06 16:41 -6.09952 106.97759 7019 ft 272 kts 88°
2026-05-06 16:41 -6.09904 106.99648 7067 ft 276 kts 88°
2026-05-06 16:41 -6.09860 107.01610 7526 ft 281 kts 88°
2026-05-06 16:42 -6.09813 107.03552 8230 ft 278 kts 88°
2026-05-06 16:42 -6.09785 107.05492 8811 ft 280 kts 89°
2026-05-06 16:42 -6.09788 107.07448 9348 ft 283 kts 89°
2026-05-06 16:42 -6.09793 107.09438 9882 ft 286 kts 89°
2026-05-06 16:43 -6.09797 107.11438 10353 ft 291 kts 89°
2026-05-06 16:43 -6.09800 107.13525 10598 ft 305 kts 89°
2026-05-06 16:43 -6.09785 107.15672 10836 ft 318 kts 86°
2026-05-06 16:43 -6.09240 107.17874 11050 ft 331 kts 64°
2026-05-06 16:44 -6.07861 107.19778 11269 ft 346 kts 45°
2026-05-06 16:44 -6.06036 107.21421 11505 ft 359 kts 43°
2026-05-06 16:44 -6.04148 107.23126 11719 ft 371 kts 43°
2026-05-06 16:44 -6.02208 107.24892 12006 ft 380 kts 43°
2026-05-06 16:45 -6.00241 107.26689 12494 ft 383 kts 43°
2026-05-06 16:45 -5.98262 107.28503 12993 ft 386 kts 44°
2026-05-06 16:45 -5.96261 107.30341 13488 ft 389 kts 44°
2026-05-06 16:45 -5.94266 107.32176 13953 ft 392 kts 44°
2026-05-06 16:46 -5.92251 107.34029 14405 ft 395 kts 44°
2026-05-06 16:46 -5.90221 107.35894 14865 ft 398 kts 44°
2026-05-06 16:46 -5.88150 107.37794 15325 ft 401 kts 44°
2026-05-06 16:46 -5.86098 107.39675 15779 ft 404 kts 43°
2026-05-06 16:47 -5.84006 107.41588 16225 ft 407 kts 44°
2026-05-06 16:47 -5.81913 107.43504 16676 ft 410 kts 44°
2026-05-06 16:47 -5.79800 107.45437 17113 ft 413 kts 44°
2026-05-06 16:47 -5.77650 107.47408 17554 ft 415 kts 44°
2026-05-06 16:48 -5.75521 107.49360 17966 ft 418 kts 44°
2026-05-06 16:48 -5.73380 107.51321 18391 ft 421 kts 44°
2026-05-06 16:48 -5.71199 107.53322 18814 ft 423 kts 44°
2026-05-06 16:48 -5.69004 107.55334 19234 ft 426 kts 44°
2026-05-06 16:49 -5.66829 107.57328 19618 ft 428 kts 44°
2026-05-06 16:49 -5.64613 107.59358 20009 ft 430 kts 44°
2026-05-06 16:49 -5.62415 107.61372 20373 ft 433 kts 44°
2026-05-06 16:49 -5.60178 107.63417 20738 ft 435 kts 44°
2026-05-06 16:50 -5.57926 107.65475 21103 ft 437 kts 43°
2026-05-06 16:50 -5.55662 107.67547 21463 ft 439 kts 44°
2026-05-06 16:50 -5.53415 107.69604 21814 ft 441 kts 44°
2026-05-06 16:50 -5.51135 107.71693 22153 ft 443 kts 44°
2026-05-06 16:51 -5.48837 107.73797 22477 ft 446 kts 44°
2026-05-06 16:51 -5.46559 107.75874 22804 ft 447 kts 43°
2026-05-06 16:51 -5.44076 107.77763 23096 ft 451 kts 34°
2026-05-06 16:51 -5.41261 107.79289 23406 ft 456 kts 25°
2026-05-06 16:52 -5.38296 107.80376 23710 ft 459 kts 19°
2026-05-06 16:52 -5.35219 107.81288 24029 ft 462 kts 18°
2026-05-06 16:52 -5.32115 107.82179 24337 ft 464 kts 18°
2026-05-06 16:52 -5.28993 107.83072 24632 ft 465 kts 18°
2026-05-06 16:53 -5.25858 107.83973 24930 ft 467 kts 18°
2026-05-06 16:53 -5.22719 107.84880 25232 ft 469 kts 18°
2026-05-06 16:53 -5.19562 107.85796 25516 ft 471 kts 18°
2026-05-06 16:53 -5.16431 107.86704 25795 ft 473 kts 18°
2026-05-06 16:54 -5.13251 107.87628 26076 ft 475 kts 18°
2026-05-06 16:54 -5.10054 107.88557 26350 ft 476 kts 18°
2026-05-06 16:54 -5.06836 107.89494 26611 ft 478 kts 18°
2026-05-06 16:54 -5.03620 107.90429 26879 ft 480 kts 18°
2026-05-06 16:55 -5.00405 107.91364 27138 ft 482 kts 18°
2026-05-06 16:55 -4.97171 107.92305 27388 ft 483 kts 18°
2026-05-06 16:55 -4.93964 107.93239 27628 ft 484 kts 18°
2026-05-06 16:55 -4.90710 107.94187 27861 ft 486 kts 18°
2026-05-06 16:56 -4.87416 107.95149 28108 ft 488 kts 18°
2026-05-06 16:56 -4.84170 107.96092 28446 ft 487 kts 18°
2026-05-06 16:56 -4.80893 107.97044 28827 ft 486 kts 18°
2026-05-06 16:56 -4.77661 107.97983 29180 ft 485 kts 18°
2026-05-06 16:57 -4.74437 107.98918 29521 ft 484 kts 18°
2026-05-06 16:57 -4.71204 107.99857 29856 ft 484 kts 18°
2026-05-06 16:57 -4.67924 108.00809 30193 ft 483 kts 18°
2026-05-06 16:57 -4.64705 108.01745 30526 ft 483 kts 18°
2026-05-06 16:58 -4.61502 108.02675 30865 ft 482 kts 18°
2026-05-06 16:58 -4.58274 108.03613 31208 ft 481 kts 18°
2026-05-06 16:58 -4.55054 108.04550 31555 ft 480 kts 18°
2026-05-06 16:58 -4.51849 108.05482 31889 ft 479 kts 17°
2026-05-06 16:59 -4.48617 108.06423 32220 ft 479 kts 17°
2026-05-06 16:59 -4.45422 108.07353 32546 ft 478 kts 17°
2026-05-06 16:59 -4.42236 108.08279 32913 ft 477 kts 17°
2026-05-06 16:59 -4.39036 108.09209 33292 ft 476 kts 17°
2026-05-06 17:00 -4.35867 108.10130 33690 ft 474 kts 17°
2026-05-06 17:00 -4.32690 108.11054 34095 ft 473 kts 17°
2026-05-06 17:00 -4.29514 108.11979 34494 ft 471 kts 17°
2026-05-06 17:00 -4.26389 108.12888 34857 ft 470 kts 17°
2026-05-06 17:01 -4.23234 108.13808 35189 ft 469 kts 18°
2026-05-06 17:01 -4.20112 108.14845 35452 ft 470 kts 20°
2026-05-06 17:01 -4.17089 108.16045 35668 ft 471 kts 24°
2026-05-06 17:01 -4.14093 108.17441 35873 ft 472 kts 27°
2026-05-06 17:02 -4.11213 108.18994 36084 ft 473 kts 30°
2026-05-06 17:02 -4.08389 108.20739 36303 ft 474 kts 34°
2026-05-06 17:02 -4.05706 108.22621 36507 ft 475 kts 37°
2026-05-06 17:02 -4.03076 108.24651 36711 ft 475 kts 38°
2026-05-06 17:03 -4.00460 108.26701 36825 ft 477 kts 38°
2026-05-06 17:03 -3.95240 108.30798 36833 ft 478 kts 38°
2026-05-06 17:04 -3.89981 108.34920 36834 ft 479 kts 38°
2026-05-06 17:04 -3.84761 108.39008 36839 ft 479 kts 38°
2026-05-06 17:05 -3.79498 108.43126 36841 ft 478 kts 38°
2026-05-06 17:05 -3.74268 108.47217 36842 ft 478 kts 38°
2026-05-06 17:06 -3.69022 108.51320 36846 ft 478 kts 38°
2026-05-06 17:06 -3.63786 108.55415 36850 ft 477 kts 38°
2026-05-06 17:07 -3.58555 108.59502 36852 ft 477 kts 38°
2026-05-06 17:07 -3.53322 108.63588 36853 ft 478 kts 39°
2026-05-06 17:08 -3.48079 108.67690 36853 ft 477 kts 38°
2026-05-06 17:08 -3.42832 108.71796 36852 ft 476 kts 38°
2026-05-06 17:09 -3.37614 108.75871 36852 ft 475 kts 38°
2026-05-06 17:09 -3.32384 108.79954 36853 ft 475 kts 38°
2026-05-06 17:10 -3.27182 108.84021 36852 ft 476 kts 39°
2026-05-06 17:10 -3.21935 108.88123 36851 ft 477 kts 39°
2026-05-06 17:11 -3.16732 108.92189 36847 ft 477 kts 39°
2026-05-06 17:11 -3.11488 108.96285 36838 ft 477 kts 39°
2026-05-06 17:12 -3.06266 109.00364 36834 ft 477 kts 39°
2026-05-06 17:12 -3.01034 109.04451 36832 ft 476 kts 39°
2026-05-06 17:13 -2.95800 109.08541 36832 ft 476 kts 39°
2026-05-06 17:13 -2.90576 109.12622 36832 ft 476 kts 39°
2026-05-06 17:14 -2.85396 109.16736 36831 ft 476 kts 40°
2026-05-06 17:14 -2.80244 109.20912 36832 ft 476 kts 40°
2026-05-06 17:15 -2.75097 109.25085 36832 ft 475 kts 40°
2026-05-06 17:15 -2.69977 109.29230 36831 ft 474 kts 39°
2026-05-06 17:16 -2.64845 109.33381 36831 ft 474 kts 40°
2026-05-06 17:16 -2.59690 109.37549 36831 ft 474 kts 40°
2026-05-06 17:17 -2.54583 109.41681 36831 ft 474 kts 40°
2026-05-06 17:17 -2.49431 109.45847 36831 ft 473 kts 39°
2026-05-06 17:18 -2.44308 109.49988 36831 ft 473 kts 39°
2026-05-06 17:18 -2.39195 109.54120 36831 ft 472 kts 39°
2026-05-06 17:19 -2.34075 109.58258 36830 ft 473 kts 39°
2026-05-06 17:19 -2.28987 109.62371 36830 ft 472 kts 40°
2026-05-06 17:20 -2.23854 109.66518 36831 ft 471 kts 40°
2026-05-06 17:20 -2.18755 109.70641 36831 ft 471 kts 40°
2026-05-06 17:21 -2.13660 109.74761 36829 ft 471 kts 39°
2026-05-06 17:21 -2.08579 109.78868 36826 ft 471 kts 39°
2026-05-06 17:22 -2.03487 109.82982 36835 ft 470 kts 39°
2026-05-06 17:22 -1.98396 109.87094 36845 ft 468 kts 39°
2026-05-06 17:23 -1.93341 109.91180 36849 ft 468 kts 39°
2026-05-06 17:23 -1.88274 109.95277 36851 ft 468 kts 39°
2026-05-06 17:24 -1.83176 109.99398 36850 ft 469 kts 39°
2026-05-06 17:24 -1.78097 110.03504 36851 ft 471 kts 39°
2026-05-06 17:25 -1.73007 110.07620 36847 ft 470 kts 40°
2026-05-06 17:25 -1.67917 110.11729 36838 ft 469 kts 39°
2026-05-06 17:26 -1.62736 110.15685 36838 ft 470 kts 38°
2026-05-06 17:26 -1.57499 110.19632 36838 ft 469 kts 38°
2026-05-06 17:27 -1.52300 110.23570 36841 ft 470 kts 38°
2026-05-06 17:27 -1.47086 110.27531 36844 ft 471 kts 38°
2026-05-06 17:28 -1.41879 110.31489 36849 ft 471 kts 38°
2026-05-06 17:28 -1.36665 110.35457 36851 ft 471 kts 38°
2026-05-06 17:29 -1.31442 110.39429 36852 ft 471 kts 38°
2026-05-06 17:29 -1.26252 110.43405 36849 ft 471 kts 39°
2026-05-06 17:30 -1.21061 110.47452 36846 ft 471 kts 39°
2026-05-06 17:30 -1.15914 110.51470 36845 ft 471 kts 39°
2026-05-06 17:31 -1.10736 110.55512 36846 ft 471 kts 39°
2026-05-06 17:31 -1.05548 110.59559 36848 ft 471 kts 39°
2026-05-06 17:32 -1.00380 110.63590 36849 ft 471 kts 39°
2026-05-06 17:32 -0.95213 110.67619 36851 ft 471 kts 39°
2026-05-06 17:33 -0.90064 110.71635 36853 ft 471 kts 39°
2026-05-06 17:33 -0.84867 110.75688 36858 ft 471 kts 39°
2026-05-06 17:34 -0.79719 110.79704 36857 ft 471 kts 39°
2026-05-06 17:34 -0.74545 110.83739 36862 ft 471 kts 39°
2026-05-06 17:35 -0.69400 110.87750 36866 ft 471 kts 39°
2026-05-06 17:35 -0.64216 110.91794 36883 ft 470 kts 39°
2026-05-06 17:36 -0.56466 110.97839 36906 ft 470 kts 39°
2026-05-06 17:36 -0.51306 111.01865 36921 ft 470 kts 39°
2026-05-06 17:37 -0.46171 111.05872 36924 ft 470 kts 39°
2026-05-06 17:37 -0.41006 111.09904 36909 ft 470 kts 39°
2026-05-06 17:38 -0.35823 111.13938 36894 ft 470 kts 38°
2026-05-06 17:38 -0.30668 111.17926 36883 ft 470 kts 38°
2026-05-06 17:39 -0.25507 111.21924 36871 ft 470 kts 38°
2026-05-06 17:39 -0.20342 111.25928 36867 ft 470 kts 38°
2026-05-06 17:40 -0.15177 111.29935 36862 ft 470 kts 38°
2026-05-06 17:40 -0.10002 111.33949 36859 ft 470 kts 38°
2026-05-06 17:41 -0.04835 111.37956 36859 ft 469 kts 39°
2026-05-06 17:41 0.00327 111.41961 36854 ft 469 kts 38°
2026-05-06 17:42 0.05497 111.45972 36852 ft 469 kts 38°
2026-05-06 17:42 0.10645 111.49967 36850 ft 469 kts 38°
2026-05-06 17:43 0.15814 111.53978 36841 ft 469 kts 38°
2026-05-06 17:43 0.20970 111.57976 36837 ft 469 kts 39°
2026-05-06 17:44 0.26120 111.61972 36839 ft 469 kts 39°
2026-05-06 17:44 0.31279 111.65975 36840 ft 469 kts 39°
2026-05-06 17:45 0.36407 111.69955 36840 ft 469 kts 39°
2026-05-06 17:45 0.41569 111.73960 36841 ft 468 kts 39°
2026-05-06 17:46 0.46723 111.77959 36840 ft 468 kts 39°
2026-05-06 17:46 0.51876 111.81956 36840 ft 468 kts 39°
2026-05-06 17:47 0.57005 111.85935 36842 ft 468 kts 39°
2026-05-06 17:47 0.62168 111.89942 36845 ft 468 kts 39°
2026-05-06 17:48 0.67321 111.93942 36844 ft 468 kts 39°
2026-05-06 17:48 0.72444 111.97917 36839 ft 468 kts 39°
2026-05-06 17:49 0.77587 112.01910 36834 ft 468 kts 39°
2026-05-06 17:49 0.82717 112.05891 36833 ft 468 kts 39°
2026-05-06 17:50 0.87857 112.09879 36833 ft 467 kts 39°
2026-05-06 17:50 0.93019 112.13886 36834 ft 467 kts 39°
2026-05-06 17:51 0.98157 112.17873 36835 ft 467 kts 39°
2026-05-06 17:51 1.03301 112.21867 36838 ft 467 kts 39°
2026-05-06 17:52 1.08432 112.25851 36841 ft 467 kts 39°
2026-05-06 17:52 1.13542 112.29817 36850 ft 467 kts 39°
2026-05-06 17:53 1.18686 112.33810 36857 ft 467 kts 39°
2026-05-06 17:53 1.23807 112.37786 36866 ft 467 kts 39°
2026-05-06 17:54 1.28943 112.41773 36872 ft 467 kts 39°
2026-05-06 17:54 1.34098 112.45778 36882 ft 466 kts 39°
2026-05-06 17:55 1.39219 112.49757 36890 ft 466 kts 39°
2026-05-06 17:55 1.44316 112.53718 36892 ft 466 kts 39°
2026-05-06 17:56 1.49449 112.57709 36896 ft 466 kts 39°
2026-05-06 17:56 1.54571 112.61691 36893 ft 466 kts 39°
2026-05-06 17:57 1.59678 112.65665 36882 ft 465 kts 39°
2026-05-06 17:57 1.64784 112.69662 36878 ft 465 kts 39°
2026-05-06 17:58 1.69867 112.73648 36872 ft 465 kts 39°
2026-05-06 17:58 1.74970 112.77653 36871 ft 465 kts 39°
2026-05-06 17:59 1.80086 112.81667 36868 ft 465 kts 39°
2026-05-06 17:59 1.85176 112.85661 36866 ft 465 kts 39°
2026-05-06 18:00 1.90254 112.89646 36866 ft 464 kts 38°
2026-05-06 18:00 1.95329 112.93628 36858 ft 464 kts 39°
2026-05-06 18:01 2.00434 112.97634 36860 ft 464 kts 39°
2026-05-06 18:01 2.05506 113.01616 36862 ft 465 kts 39°
2026-05-06 18:02 2.10606 113.05619 36864 ft 464 kts 39°
2026-05-06 18:02 2.15689 113.09611 36864 ft 465 kts 39°
2026-05-06 18:03 2.20777 113.13605 36872 ft 465 kts 39°
2026-05-06 18:03 2.25856 113.17592 36875 ft 465 kts 39°
2026-05-06 18:04 2.30934 113.21581 36875 ft 465 kts 39°
2026-05-06 18:04 2.36048 113.25596 36876 ft 465 kts 39°
2026-05-06 18:05 2.41136 113.29590 36876 ft 465 kts 39°
2026-05-06 18:05 2.46199 113.33566 36878 ft 466 kts 39°
2026-05-06 18:06 2.51304 113.37579 36875 ft 465 kts 39°
2026-05-06 18:06 2.56394 113.41578 36884 ft 467 kts 40°
2026-05-06 18:07 2.61534 113.45622 36889 ft 468 kts 40°
2026-05-06 18:07 2.66660 113.49655 36900 ft 468 kts 39°
2026-05-06 18:08 2.71762 113.53670 36905 ft 469 kts 39°
2026-05-06 18:08 2.76923 113.57725 36913 ft 469 kts 40°
2026-05-06 18:09 2.82027 113.61738 36902 ft 470 kts 39°
2026-05-06 18:09 2.87172 113.65790 36893 ft 471 kts 39°
2026-05-06 18:10 2.92329 113.69854 36892 ft 472 kts 39°
2026-05-06 18:10 2.97510 113.73940 36900 ft 472 kts 39°
2026-05-06 18:11 3.02661 113.78003 36909 ft 471 kts 39°
2026-05-06 18:11 3.07794 113.82052 36904 ft 470 kts 39°
2026-05-06 18:12 3.12938 113.86108 36904 ft 471 kts 39°
2026-05-06 18:12 3.18109 113.90189 36902 ft 472 kts 39°
2026-05-06 18:13 3.23274 113.94266 36894 ft 472 kts 39°
2026-05-06 18:13 3.28436 113.98341 36888 ft 472 kts 39°
2026-05-06 18:14 3.33594 114.02412 36886 ft 471 kts 39°
2026-05-06 18:14 3.38750 114.06483 36891 ft 472 kts 39°
2026-05-06 18:15 3.43907 114.10555 36892 ft 473 kts 39°
2026-05-06 18:15 3.49085 114.14646 36878 ft 474 kts 39°
2026-05-06 18:16 3.54265 114.18738 36878 ft 475 kts 39°
2026-05-06 18:16 3.59476 114.22856 36875 ft 476 kts 39°
2026-05-06 18:17 3.64660 114.26951 36874 ft 477 kts 39°
2026-05-06 18:17 3.69898 114.31091 36876 ft 477 kts 39°
2026-05-06 18:18 3.75108 114.35213 36881 ft 477 kts 40°
2026-05-06 18:18 3.80305 114.39323 36885 ft 477 kts 39°
2026-05-06 18:19 3.85537 114.43465 36887 ft 478 kts 39°
2026-05-06 18:19 3.90732 114.47575 36883 ft 478 kts 39°
2026-05-06 18:20 3.96008 114.51678 36876 ft 479 kts 38°
2026-05-06 18:20 4.01381 114.55691 36868 ft 480 kts 37°
2026-05-06 18:21 4.06705 114.59676 36869 ft 480 kts 37°
2026-05-06 18:21 4.12047 114.63689 36872 ft 480 kts 38°
2026-05-06 18:22 4.17404 114.67719 36876 ft 479 kts 38°
2026-05-06 18:22 4.22728 114.71732 36875 ft 479 kts 38°
2026-05-06 18:23 4.28038 114.75736 36871 ft 479 kts 38°
2026-05-06 18:23 4.33358 114.79746 36865 ft 479 kts 37°
2026-05-06 18:24 4.38675 114.83755 36866 ft 478 kts 38°
2026-05-06 18:24 4.44031 114.87795 36872 ft 478 kts 38°
2026-05-06 18:25 4.49212 114.91935 36878 ft 478 kts 40°
2026-05-06 18:25 4.54383 114.96149 36878 ft 477 kts 40°
2026-05-06 18:26 4.59541 115.00337 36878 ft 476 kts 40°
2026-05-06 18:26 4.64685 115.04507 36875 ft 475 kts 39°
2026-05-06 18:27 4.69800 115.08650 36865 ft 475 kts 39°
2026-05-06 18:27 4.74977 115.12846 36856 ft 476 kts 39°